Location: Cahas Mountain Overlook
(37.0833°N, 80.1000°W)
Time: 18:37:26
(UTC-04:00)

SR - Pass Details

Date: 17 February 2026
Orbit: 572 x 849 km, 66.7° (Epoch: 12 March)

Event Time Altitude Azimuth Distance (km) Brightness Sun altitude
Rises 03:39:26 0° 171° (S) 2,759 - -41.6°
Reaches altitude 10° 03:42:09 10° 152° (SSE) 1,866 - -41.1°
Maximum altitude 03:45:04 19° 107° (ESE) 1,404 - -40.6°
Drops below altitude 10° 03:48:03 10° 63° (ENE) 1,908 - -40.0°
Exits shadow 03:48:28 - 59° (ENE) 2,030 ? -39.9°
Sets 03:50:51 0° 45° (NE) 2,845 ? -39.5°
